JG6YCL-13 Weather Reports


time (UTC)temp
C
wind
direction
speed
KPH
gust
KPH
rain 1hr
cm
rain 24hr
cm
rain mn
cm
humidity
%
barometer
mb
20260504110413 17 0.0 0.0 0.00 0.00 0.00 60 1005.2
20260504100401 18 0.0 0.0 0.00 0.00 0.00 55 1004.3
20260504081840 20 0.0 0.0 0.00 0.00 0.00 49 1003.6
20260504081339 20 0.0 0.0 0.00 0.00 0.00 49 1003.6
20260504080838 20 0.0 0.0 0.00 0.00 0.00 49 1003.6
20260504080337 20 0.0 0.0 0.00 0.00 0.00 49 1003.8
20260504070325 20 0.0 0.0 0.00 0.00 0.00 50 1003.8
20260504050301 20 0.0 0.0 0.00 0.00 0.00 41 1003.1
20260504045801 20 0.0 0.0 0.00 0.00 0.00 43 1003.0
20260504045304 20 0.0 0.0 0.00 0.00 0.00 37 1003.2
20260504044758 20 0.0 0.0 0.00 0.00 0.00 35 1003.0
20260504044257 20 0.0 0.0 0.00 0.00 0.00 37 1002.7
20260504043757 20 0.0 0.0 0.00 0.00 0.00 40 1002.7
20260504043255 20 0.0 0.0 0.00 0.00 0.00 43 1002.8
20260504042755 20 0.0 0.0 0.00 0.00 0.00 45 1002.9
20260504042253 20 0.0 0.0 0.00 0.00 0.00 45 1002.7
20260504041752 20 0.0 0.0 0.00 0.00 0.00 43 1002.7
20260504041251 20 0.0 0.0 0.00 0.00 0.00 44 1002.7
20260504040750 19 0.0 0.0 0.00 0.00 0.00 45 1002.6
20260504040249 19 0.0 0.0 0.00 0.00 0.00 45 1002.6
20260504035748 19 0.0 0.0 0.00 0.00 0.00 47 1002.9
20260504035248 19 0.0 0.0 0.00 0.00 0.00 47 1002.6
20260504034746 19 0.0 0.0 0.00 0.00 0.00 47 1002.7
20260504034245 19 0.0 0.0 0.00 0.00 0.00 48 1002.6
20260504033745 19 0.0 0.0 0.00 0.00 0.00 47 1002.5
20260504033243 20 0.0 0.0 0.00 0.00 0.00 48 1002.6
20260504032743 19 0.0 0.0 0.00 0.00 0.00 45 1002.6
20260504032241 19 0.0 0.0 0.00 0.00 0.00 47 1002.7
20260504031740 19 0.0 0.0 0.00 0.00 0.00 45 1002.6
20260504031239 19 0.0 0.0 0.00 0.00 0.00 48 1002.5
20260504030738 19 0.0 0.0 0.00 0.00 0.00 50 1002.6
20260504030237 19 0.0 0.0 0.00 0.00 0.00 49 1002.5
20260504025736 19 0.0 0.0 0.00 0.00 0.00 49 1002.4
20260504025235 19 0.0 0.0 0.00 0.00 0.00 49 1002.3
20260504024736 19 0.0 0.0 0.00 0.00 0.00 48 1002.4
20260504024233 18 0.0 0.0 0.00 0.00 0.00 49 1002.4
20260504023733 19 0.0 0.0 0.00 0.00 0.00 50 1002.3
20260504023234 19 0.0 0.0 0.00 0.00 0.00 51 1002.4
20260504022730 18 0.0 0.0 0.00 0.00 0.00 52 1002.5
20260504022229 18 0.0 0.0 0.00 0.00 0.00 51 1002.5
20260504021729 18 0.0 0.0 0.00 0.00 0.00 52 1002.6
20260504021227 18 0.0 0.0 0.00 0.00 0.00 52 1002.6
20260504020728 18 0.0 0.0 0.00 0.00 0.00 52 1002.5
20260504020225 18 0.0 0.0 0.00 0.00 0.00 51 1002.6
20260504015724 18 0.0 0.0 0.00 0.00 0.00 52 1002.6
20260504015224 18 0.0 0.0 0.00 0.00 0.00 50 1002.5
20260504014722 18 0.0 0.0 0.00 0.00 0.00 50 1002.4
20260504014221 18 0.0 0.0 0.00 0.00 0.00 49 1002.4
20260504013720 18 0.0 0.0 0.00 0.00 0.00 49 1002.3
20260504013219 18 0.0 0.0 0.00 0.00 0.00 49 1002.2
20260504012720 18 0.0 0.0 0.00 0.00 0.00 49 1002.2
20260504012217 18 0.0 0.0 0.00 0.00 0.00 48 1002.2
20260504011717 18 0.0 0.0 0.00 0.00 0.00 50 1002.3
20260504011215 17 0.0 0.0 0.00 0.00 0.00 49 1002.3
20260504010713 17 0.0 0.0 0.00 0.00 0.00 50 1002.3
20260504010214 17 0.0 0.0 0.00 0.00 0.00 51 1002.1
20260504005714 17 0.0 0.0 0.00 0.00 0.00 52 1002.0
20260504005212 17 0.0 0.0 0.00 0.00 0.00 52 1002.0
20260504004710 17 0.0 0.0 0.00 0.00 0.00 53 1002.0
20260504004209 17 0.0 0.0 0.00 0.00 0.00 54 1001.8
20260504003708 17 0.0 0.0 0.00 0.00 0.00 54 1001.9
20260504003207 17 0.0 0.0 0.00 0.00 0.00 56 1001.7
20260504002708 17 0.0 0.0 0.00 0.00 0.00 57 1001.7
20260504002205 17 0.0 0.0 0.00 0.00 0.00 57 1001.6
20260504001704 17 0.0 0.0 0.00 0.00 0.00 57 1001.2
20260504001204 17 0.0 0.0 0.00 0.00 0.00 57 1001.3
20260504000703 17 0.0 0.0 0.00 0.00 0.00 58 1001.2
20260504000201 17 0.0 0.0 0.00 0.00 0.00 57 1001.1
20260503235700 17 0.0 0.0 0.00 0.00 0.00 57 1001.0
20260503235159 17 0.0 0.0 0.00 0.00 0.00 56 1000.9
20260503234658 16 0.0 0.0 0.00 0.00 0.00 56 1000.7
20260503234157 16 0.0 0.0 0.00 0.00 0.00 57 1000.7
20260503233656 16 0.0 0.0 0.00 0.00 0.00 58 1000.5
20260503233154 16 0.0 0.0 0.00 0.00 0.00 58 1000.5
20260503232654 16 0.0 0.0 0.00 0.00 0.00 58 1000.3
20260503232153 16 0.0 0.0 0.00 0.00 0.00 57 1000.1
20260503231652 16 0.0 0.0 0.00 0.00 0.00 58 1000.1
20260503231151 16 0.0 0.0 0.00 0.00 0.00 59 1000.0
20260503230650 16 0.0 0.0 0.00 0.00 0.00 59 999.8
20260503230149 16 0.0 0.0 0.00 0.00 0.00 61 999.8
20260503225648 16 0.0 0.0 0.00 0.00 0.00 61 999.7
20260503225147 16 0.0 0.0 0.00 0.00 0.00 60 999.7
20260503224647 16 0.0 0.0 0.00 0.00 0.00 59 999.6
20260503223644 16 0.0 0.0 0.00 0.00 0.00 60 999.2
20260503223143 16 0.0 0.0 0.00 0.00 0.00 60 999.2
20260503222642 16 0.0 0.0 0.00 0.00 0.00 59 999.1
20260503222141 16 0.0 0.0 0.00 0.00 0.00 60 999.2
20260503221640 16 0.0 0.0 0.00 0.00 0.00 60 999.0
20260503221139 16 0.0 0.0 0.00 0.00 0.00 61 998.9
20260503220638 16 0.0 0.0 0.00 0.00 0.00 61 998.6
20260503220138 16 0.0 0.0 0.00 0.00 0.00 62 998.7
20260503215636 16 0.0 0.0 0.00 0.00 0.00 63 998.5
20260503215135 16 0.0 0.0 0.00 0.00 0.00 62 998.4
20260503214636 16 0.0 0.0 0.00 0.00 0.00 61 998.2
20260503214133 16 0.0 0.0 0.00 0.00 0.00 61 998.2
20260503213634 16 0.0 0.0 0.00 0.00 0.00 61 998.1
20260503213135 16 0.0 0.0 0.00 0.00 0.00 61 998.0
20260503212630 16 0.0 0.0 0.00 0.00 0.00 64 997.7
20260503212129 16 0.0 0.0 0.00 0.00 0.00 64 997.6
20260503211638 16 0.0 0.0 0.00 0.00 0.00 64 997.4
20260503211127 16 0.0 0.0 0.00 0.00 0.00 65 997.3
20260503210626 16 0.0 0.0 0.00 0.00 0.00 67 997.3
20260503210126 16 0.0 0.0 0.00 0.00 0.00 66 997.1
20260503205625 16 0.0 0.0 0.00 0.00 0.00 66 996.8
20260503205124 16 0.0 0.0 0.00 0.00 0.00 66 996.7
20260503204622 16 0.0 0.0 0.00 0.00 0.00 67 996.5
20260503204122 16 0.0 0.0 0.00 0.00 0.00 68 996.5
20260503203620 16 0.0 0.0 0.00 0.00 0.00 69 996.1
20260503203119 16 0.0 0.0 0.00 0.00 0.00 69 996.4
20260503202618 16 0.0 0.0 0.00 0.00 0.00 68 996.3
20260503202117 16 0.0 0.0 0.00 0.00 0.00 69 996.5
20260503201616 16 0.0 0.0 0.00 0.00 0.00 69 996.5
20260503201115 16 0.0 0.0 0.00 0.00 0.00 72 996.2
20260503200615 16 0.0 0.0 0.00 0.00 0.00 72 996.1
20260503200113 16 0.0 0.0 0.00 0.00 0.00 72 996.2
20260503195612 16 0.0 0.0 0.00 0.00 0.00 71 996.2
20260503195112 16 0.0 0.0 0.00 0.00 0.00 71 996.0
20260503194610 16 0.0 0.0 0.00 0.00 0.00 72 996.2
20260503194110 16 0.0 0.0 0.00 0.00 0.00 72 996.2
20260503193608 16 0.0 0.0 0.00 0.00 0.00 72 996.1
20260503193107 16 0.0 0.0 0.00 0.00 0.00 72 996.1
20260503192606 16 0.0 0.0 0.00 0.00 0.00 72 996.0
20260503192105 16 0.0 0.0 0.00 0.00 0.00 71 995.9
20260503191605 16 0.0 0.0 0.00 0.00 0.00 72 995.9
20260503191103 16 0.0 0.0 0.00 0.00 0.00 73 995.9
20260503190602 16 0.0 0.0 0.00 0.00 0.00 72 995.7
20260503190103 16 0.0 0.0 0.00 0.00 0.00 72 995.7
20260503185600 16 0.0 0.0 0.00 0.00 0.00 72 995.8
20260503185059 16 0.0 0.0 0.00 0.00 0.00 72 995.8
20260503184558 16 0.0 0.0 0.00 0.00 0.00 72 995.8
20260503184058 16 0.0 0.0 0.00 0.00 0.00 72 995.9
20260503183556 16 0.0 0.0 0.00 0.00 0.00 73 995.9
20260503183055 16 0.0 0.0 0.00 0.00 0.00 73 995.9
20260503182554 16 0.0 0.0 0.00 0.00 0.00 72 995.8
20260503182053 16 0.0 0.0 0.00 0.00 0.00 73 995.7
20260503181552 16 0.0 0.0 0.00 0.00 0.00 74 995.7
20260503181051 16 0.0 0.0 0.00 0.00 0.00 74 995.7
20260503180551 16 0.0 0.0 0.00 0.00 0.00 74 995.6
20260503180049 16 0.0 0.0 0.00 0.00 0.00 74 995.8
20260503175548 16 0.0 0.0 0.00 0.00 0.00 74 995.9
20260503175047 16 0.0 0.0 0.00 0.00 0.00 75 995.6
20260503174546 16 0.0 0.0 0.00 0.00 0.00 74 995.7
20260503174046 16 0.0 0.0 0.00 0.00 0.00 75 995.8
20260503173544 16 0.0 0.0 0.00 0.00 0.00 74 995.7
20260503173044 17 0.0 0.0 0.00 0.00 0.00 75 995.6
20260503172542 17 0.0 0.0 0.00 0.00 0.00 75 995.7
20260503172041 17 0.0 0.0 0.00 0.00 0.00 75 995.6
20260503171540 17 0.0 0.0 0.00 0.00 0.00 74 995.3
20260503171039 17 0.0 0.0 0.00 0.00 0.00 74 995.4
20260503170538 17 0.0 0.0 0.00 0.00 0.00 76 995.3
20260503150515 17 0.0 0.0 0.00 0.00 0.00 81 994.7
20260503130956 17 0.0 0.0 0.00 0.00 0.00 81 994.2
20260503130451 17 0.0 0.0 0.00 0.00 0.00 82 994.1